Printer-friendly version

IAU Minor Planet Center

Minor Planet Center

(30) Urania

Orbital Elements

The following orbital elements are taken from MPO 62176
   (30) Urania
Epoch 2007 Apr. 10.0 TT = JDT 2454200.5                 Goffin
M 277.41514              (2000.0)            P               Q
n   0.27090980     Peri.   86.95905     +0.82154972     -0.56940111
a   2.3654816      Node   307.74746     +0.50746731     +0.75345030
e   0.1265024      Incl.    2.09862     +0.25987109     +0.32877807
P   3.64           H    7.57          G   0.15           U   0
From 1395 observations at 82 oppositions, 1854-2003, mean residual 0".55.
An explanation of the orbital elements is available.

These orbital elements are also available in forms suitable for loading into a number of popular planetarium-type software programs.


Ephemeris

The following ephemeris is at intervals of five days. A daily ephemeris covering the same time interval is also available.

Personalized ephemerides for this object (and others) can be generated using the MPES.

Date    TT    R. A. (2000) Decl.     Delta      r     Elong.  Phase     V
 
2007 06 10    22 48.76   -07 13.8    1.905    2.278    97.8    26.2    11.9
2007 06 15    22 53.36   -06 40.8    1.841    2.271   101.4    26.0    11.9
2007 06 20    22 57.50   -06 10.1    1.777    2.264   105.0    25.7    11.8
2007 06 25    23 01.16   -05 41.9    1.715    2.257   108.7    25.2    11.7
2007 06 30    23 04.29   -05 16.5    1.654    2.250   112.6    24.6    11.6
2007 07 05    23 06.87   -04 54.1    1.595    2.243   116.6    23.9    11.5
2007 07 10    23 08.84   -04 35.1    1.538    2.237   120.8    23.0    11.3
2007 07 15    23 10.16   -04 19.8    1.483    2.230   125.2    21.9    11.2
2007 07 20    23 10.80   -04 08.4    1.431    2.223   129.8    20.6    11.1
2007 07 25    23 10.73   -04 01.2    1.383    2.217   134.5    19.1    11.0
2007 07 30    23 09.93   -03 58.2    1.338    2.210   139.4    17.4    10.8
2007 08 04    23 08.40   -03 59.7    1.297    2.204   144.6    15.5    10.7
2007 08 09    23 06.16   -04 05.5    1.260    2.197   149.9    13.4    10.6
2007 08 14    23 03.23   -04 15.6    1.229    2.191   155.4    11.1    10.4
2007 08 19    22 59.70   -04 29.5    1.202    2.185   161.1     8.6    10.3
2007 08 24    22 55.66   -04 46.8    1.182    2.179   166.9     6.0    10.1
2007 08 29    22 51.26   -05 06.6    1.167    2.173   172.7     3.4     9.9
2007 09 03    22 46.63   -05 28.3    1.159    2.167   177.7     1.1     9.7
2007 09 08    22 41.95   -05 50.9    1.156    2.161   174.4     2.6     9.8
2007 09 13    22 37.38   -06 13.3    1.160    2.156   168.6     5.3    10.0
2007 09 18    22 33.12   -06 34.7    1.170    2.150   162.7     8.0    10.1
2007 09 23    22 29.31   -06 54.1    1.185    2.145   156.9    10.6    10.3
2007 09 28    22 26.10   -07 10.7    1.206    2.140   151.1    13.1    10.4
2007 10 03    22 23.58   -07 24.1    1.233    2.135   145.6    15.4    10.5
2007 10 08    22 21.81   -07 33.8    1.263    2.130   140.2    17.5    10.6
2007 10 13    22 20.85   -07 39.4    1.299    2.125   135.0    19.4    10.8
2007 10 18    22 20.72   -07 40.9    1.337    2.120   130.0    21.1    10.9
2007 10 23    22 21.41   -07 38.0    1.379    2.116   125.2    22.6    11.0
2007 10 28    22 22.89   -07 30.9    1.424    2.112   120.7    23.9    11.1
2007 11 02    22 25.12   -07 19.7    1.471    2.107   116.2    25.0    11.2
2007 11 07    22 28.07   -07 04.4    1.521    2.103   112.0    25.9    11.3
2007 11 12    22 31.69   -06 45.2    1.571    2.100   108.0    26.6    11.4
2007 11 17    22 35.93   -06 22.3    1.624    2.096   104.0    27.2    11.4
2007 11 22    22 40.74   -05 55.7    1.677    2.093   100.3    27.7    11.5
2007 11 27    22 46.06   -05 25.8    1.731    2.089    96.6    28.0    11.6

Back to Bright Minor Planets

Astronomical Headlines Index

MPC


Valid HTML 4.01!